When you browse on this site, cookies collect data to enhance your experience and personalize the content and advertising you see.
Visit our Privacy Policy to learn more. By continuing to use the site, you agree to this use of cookies and data.
  • In Latvia
  • List of Countries
  • For 7 days
  • Water Temperature
  • Satellite Maps
  • Weather Map
  • Weather Widgets
  • user-avatar
    Login

    Hourly Weather Shturbino

    Today, 15 December, Saturday

    Time Temperature Precipitation Wind Pressure Humidity
    00:00 +4°C° 0.1 mm 2 mps 764 mmHg 82%
    01:00 +4°C° 0.1 mm 2 mps 764 mmHg 83%
    02:00 +4°C° 0.1 mm 2 mps 764 mmHg 83%
    03:00 +4°C° 0 mm 1 mps 764 mmHg 85%
    04:00 +4°C° 0 mm 1 mps 764 mmHg 84%
    05:00 +4°C° 0 mm 1 mps 764 mmHg 83%
    06:00 +4°C° 0 mm 1 mps 764 mmHg 83%
    07:00 +4°C° 0 mm 1 mps 764 mmHg 82%
    08:00 +4°C° 0 mm 1 mps 764 mmHg 81%
    09:00 +5°C° 0 mm 1 mps 764 mmHg 79%
    10:00 +5°C° 0 mm 1 mps 764 mmHg 76%
    11:00 +6°C° 0 mm 1 mps 764 mmHg 72%
    12:00 +7°C° 0 mm 1 mps 764 mmHg 69%
    13:00 +7°C° 0.1 mm 1 mps 764 mmHg 69%
    14:00 +7°C° 0.1 mm 1 mps 764 mmHg 70%
    15:00 +7°C° 0.1 mm 1 mps 764 mmHg 71%
    16:00 +6°C° 0.3 mm 1 mps 764 mmHg 74%
    17:00 +6°C° 0.3 mm 1 mps 764 mmHg 78%
    18:00 +5°C° 0.3 mm 1 mps 764 mmHg 81%
    19:00 +5°C° 0.6 mm 1 mps 764 mmHg 83%
    20:00 +5°C° 0.6 mm 1 mps 764 mmHg 84%
    21:00 +4°C° 0.6 mm 2 mps 765 mmHg 85%
    22:00 +3°C° 0.5 mm 2 mps 765 mmHg 87%
    23:00 +3°C° 0.5 mm 2 mps 765 mmHg 88%

    Tomorrow, 16 December, Sunday

    Time Temperature Precipitation Wind Pressure Humidity
    00:00 +3°C° 0.5 mm 2 mps 765 mmHg 89%
    01:00 +2°C° 0.1 mm 2 mps 765 mmHg 90%
    02:00 +2°C° 0.1 mm 2 mps 765 mmHg 90%
    03:00 0°C° 0.1 mm 3 mps 766 mmHg 91%
    04:00 0°C° 0 mm 3 mps 766 mmHg 90%
    05:00 0°C° 0 mm 3 mps 765 mmHg 90%
    06:00 -2°C° 0 mm 4 mps 765 mmHg 90%
    07:00 -2°C° 0 mm 4 mps 766 mmHg 88%
    08:00 -2°C° 0 mm 4 mps 766 mmHg 87%
    09:00 -2°C° 0 mm 4 mps 766 mmHg 85%
    10:00 -1°C° 0 mm 5 mps 766 mmHg 82%
    11:00 0°C° 0 mm 5 mps 766 mmHg 80%
    12:00 0°C° 0 mm 5 mps 765 mmHg 78%
    13:00 0°C° 0 mm 5 mps 765 mmHg 77%
    14:00 +1°C° 0 mm 5 mps 765 mmHg 77%
    15:00 +1°C° 0 mm 5 mps 765 mmHg 77%
    16:00 -1°C° 0 mm 6 mps 765 mmHg 78%
    17:00 -1°C° 0 mm 6 mps 765 mmHg 80%
    18:00 -2°C° 0 mm 6 mps 765 mmHg 81%
    19:00 -2°C° 0 mm 6 mps 765 mmHg 81%
    20:00 -2°C° 0 mm 6 mps 764 mmHg 81%
    21:00 -3°C° 0 mm 6 mps 764 mmHg 81%
    22:00 -3°C° 0 mm 6 mps 764 mmHg 81%
    23:00 -3°C° 0 mm 6 mps 764 mmHg 81%

    Day after tomorrow, 17 December, Monday

    Time Temperature Precipitation Wind Pressure Humidity
    00:00 -3°C° 0 mm 6 mps 764 mmHg 81%
    01:00 -3°C° 0 mm 6 mps 764 mmHg 81%
    02:00 -3°C° 0 mm 6 mps 764 mmHg 81%
    03:00 -3°C° 0 mm 6 mps 764 mmHg 82%
    04:00 -3°C° 0 mm 6 mps 763 mmHg 81%
    05:00 -3°C° 0 mm 6 mps 763 mmHg 81%
    06:00 -3°C° 0 mm 6 mps 763 mmHg 80%
    07:00 -3°C° 0 mm 6 mps 763 mmHg 79%
    08:00 -3°C° 0 mm 7 mps 763 mmHg 78%
    09:00 -3°C° 0 mm 7 mps 763 mmHg 77%
    10:00 -2°C° 0 mm 7 mps 762 mmHg 74%
    11:00 -1°C° 0 mm 7 mps 762 mmHg 71%
    12:00 0°C° 0 mm 7 mps 762 mmHg 68%
    13:00 +1°C° 0 mm 6 mps 762 mmHg 68%
    14:00 +1°C° 0 mm 6 mps 761 mmHg 68%
    15:00 +1°C° 0 mm 6 mps 761 mmHg 68%
    16:00 -1°C° 0 mm 6 mps 761 mmHg 71%
    17:00 -2°C° 0 mm 6 mps 761 mmHg 73%
    18:00 -2°C° 0 mm 6 mps 761 mmHg 76%
    19:00 -3°C° 0 mm 6 mps 761 mmHg 77%
    20:00 -3°C° 0 mm 6 mps 761 mmHg 77%
    21:00 -3°C° 0 mm 6 mps 761 mmHg 78%
    22:00 -3°C° 0 mm 6 mps 761 mmHg 78%
    23:00 -3°C° 0 mm 6 mps 761 mmHg 78%

    18 December, Tuesday

    Time Temperature Precipitation Wind Pressure Humidity
    00:00 -2°C° 0 mm 5 mps 761 mmHg 78%
    01:00 -2°C° 0 mm 5 mps 761 mmHg 78%
    02:00 -2°C° 0 mm 5 mps 761 mmHg 79%
    03:00 -2°C° 0 mm 5 mps 761 mmHg 79%
    04:00 -2°C° 0 mm 5 mps 761 mmHg 80%
    05:00 -2°C° 0 mm 5 mps 761 mmHg 80%
    06:00 -2°C° 0 mm 5 mps 761 mmHg 81%
    07:00 -2°C° 0 mm 5 mps 761 mmHg 80%
    08:00 -1°C° 0 mm 5 mps 761 mmHg 80%
    09:00 -1°C° 0 mm 5 mps 762 mmHg 79%
    10:00 0°C° 0 mm 5 mps 762 mmHg 75%
    11:00 +1°C° 0 mm 5 mps 762 mmHg 72%
    12:00 +2°C° 0 mm 5 mps 762 mmHg 68%
    13:00 +4°C° 0 mm 4 mps 761 mmHg 69%
    14:00 +4°C° 0 mm 4 mps 761 mmHg 70%
    15:00 +4°C° 0 mm 4 mps 761 mmHg 71%
    16:00 +3°C° 0 mm 4 mps 761 mmHg 76%
    17:00 +1°C° 0 mm 4 mps 762 mmHg 80%
    18:00 0°C° 0 mm 4 mps 762 mmHg 85%
    19:00 0°C° 0 mm 4 mps 762 mmHg 86%
    20:00 -1°C° 0 mm 4 mps 762 mmHg 87%
    21:00 -1°C° 0 mm 4 mps 762 mmHg 88%
    22:00 -1°C° 0 mm 4 mps 762 mmHg 88%
    23:00 -1°C° 0 mm 4 mps 762 mmHg 89%

    19 December, Wednesday

    Time Temperature Precipitation Wind Pressure Humidity
    00:00 0°C° 0 mm 3 mps 762 mmHg 90%
    01:00 -1°C° 0 mm 4 mps 762 mmHg 90%
    02:00 -1°C° 0 mm 4 mps 762 mmHg 90%
    03:00 -1°C° 0 mm 4 mps 762 mmHg 90%
    04:00 -1°C° 0 mm 4 mps 762 mmHg 90%
    05:00 -1°C° 0 mm 4 mps 762 mmHg 90%
    06:00 -1°C° 0 mm 4 mps 762 mmHg 89%
    07:00 0°C° 0 mm 4 mps 762 mmHg 88%
    08:00 0°C° 0 mm 4 mps 762 mmHg 87%
    09:00 0°C° 0 mm 4 mps 762 mmHg 86%
    10:00 +2°C° 0 mm 5 mps 761 mmHg 82%
    11:00 +3°C° 0 mm 5 mps 761 mmHg 77%
    12:00 +5°C° 0 mm 5 mps 761 mmHg 73%
    13:00 +5°C° 0 mm 5 mps 761 mmHg 72%
    14:00 +5°C° 0 mm 5 mps 760 mmHg 72%
    15:00 +5°C° 0 mm 6 mps 760 mmHg 72%
    16:00 +4°C° 0 mm 6 mps 760 mmHg 75%
    17:00 +3°C° 0 mm 6 mps 760 mmHg 78%
    18:00 +2°C° 0 mm 6 mps 760 mmHg 81%
    19:00 +2°C° 0 mm 6 mps 760 mmHg 82%
    20:00 +2°C° 0 mm 6 mps 760 mmHg 82%
    21:00 +2°C° 0 mm 7 mps 760 mmHg 83%
    22:00 +2°C° 0 mm 6 mps 760 mmHg 82%
    23:00 +2°C° 0 mm 6 mps 759 mmHg 82%

    20 December, Thursday

    Time Temperature Precipitation Wind Pressure Humidity
    00:00 +2°C° 0 mm 6 mps 759 mmHg 81%
    01:00 +2°C° 0 mm 6 mps 759 mmHg 81%
    02:00 +2°C° 0 mm 6 mps 759 mmHg 81%
    03:00 +2°C° 0 mm 6 mps 759 mmHg 81%
    04:00 +2°C° 0 mm 6 mps 759 mmHg 81%
    05:00 +2°C° 0 mm 6 mps 759 mmHg 81%
    06:00 +2°C° 0 mm 6 mps 759 mmHg 80%
    07:00 +2°C° 0 mm 6 mps 760 mmHg 80%
    08:00 +2°C° 0 mm 6 mps 760 mmHg 80%
    09:00 +2°C° 0 mm 6 mps 760 mmHg 80%
    10:00 +3°C° 0 mm 6 mps 760 mmHg 78%
    11:00 +4°C° 0 mm 6 mps 760 mmHg 76%
    12:00 +4°C° 0 mm 6 mps 760 mmHg 74%
    13:00 +4°C° 0.1 mm 6 mps 760 mmHg 75%
    14:00 +5°C° 0.1 mm 5 mps 760 mmHg 75%
    15:00 +5°C° 0.1 mm 5 mps 760 mmHg 75%
    16:00 +5°C° 0.1 mm 5 mps 761 mmHg 77%
    17:00 +3°C° 0.1 mm 5 mps 761 mmHg 79%
    18:00 +3°C° 0.1 mm 5 mps 761 mmHg 81%
    19:00 +3°C° 0.1 mm 5 mps 762 mmHg 82%
    20:00 +3°C° 0.1 mm 6 mps 762 mmHg 82%
    21:00 +3°C° 0.1 mm 6 mps 762 mmHg 83%
    22:00 +2°C° 0 mm 5 mps 762 mmHg 83%
    23:00 +2°C° 0 mm 5 mps 762 mmHg 84%
    Show more